User: anonymous   Login
Location: Unspecified
(0.0000°N, 0.0000°E)
Time: 22:06:12
(UTC+00:00)
Language:

Tiros 1 - Orbit

View from above orbital plane
View from above orbital plane
View from above satellite
View from above satellite

Ground track
Ground track

The orbit data is extracted from the following two-line orbital elements,

1 00029U 60002B   16273.10516624  .00000013  00000-0  33056-4 0  9998
2 00029  48.3793 233.2663 0024145 187.9683 172.0849 14.74098971 18381
Epoch (UTC): 29 September 2016 02:31:26
Eccentricity: 0.0024145
inclination: 48.3793°
perigee height: 631 km
apogee height: 665 km
right ascension of ascending node: 233.2663°
argument of perigee: 187.9683°
revolutions per day: 14.74098971
mean anomaly at epoch: 172.0849°
orbit number at epoch: 1838

The dashed part of the orbit path shows where the satellite is in the earth's shadow,  

DLR